This demonstration page uses our WeatherBlox Daily Observations layout. Learn more.

38.89511, -77.03637

Hourly Observations for July 31, 2017

Temp ( °F °C ) Dew Point ( °F °C ) Humidity (%) Winds ( mph kmh ) Pressure ( in mb ) Visibility ( mi km ) Precip ( " mm )
12:52 am 00:52 Clear 70 21.1 61 16.1 73 73 S 3 6 30.09 1019 10 16.09344 0 0
1:52 am 01:52 Mostly Clear 69 20.6 63 17.2 81 81 S 3 6 30.09 1019 10 16.09344 0 0
2:52 am 02:52 Mostly Clear 67 19.4 61 16.1 81 81 Calm 30.09 1019 10 16.09344 0 0
3:52 am 03:52 Mostly Clear 68 20 61 16.1 78 78 Calm 30.06 1018 10 16.09344 0 0
4:52 am 04:52 Clear 67 19.4 63 17.2 87 87 Calm 30.06 1018 10 16.09344 0 0
5:52 am 05:52 Mostly Clear 67 19.4 62 16.7 84 84 Calm 30.09 1019 10 16.09344 0 0
6:52 am 06:52 Mostly Sunny 68 20 62 16.7 81 81 Calm 30.09 1019 10 16.09344 0 0
7:52 am 07:52 Partly Cloudy 71 21.7 62 16.7 73 73 Calm 30.09 1019 10 16.09344 0 0
8:52 am 08:52 Mostly Cloudy 76 24.4 60 15.6 58 58 WNW 6 9 30.09 1019 10 16.09344 0 0
9:52 am 09:52 Mostly Cloudy 77 25 63 17.2 62 62 E 3 6 30.12 1020 10 16.09344 0 0
10:52 am 10:52 Partly Cloudy 83 28.3 62 16.7 49 49 N 3 6 30.12 1020 10 16.09344 0 0
11:52 am 11:52 Mostly Sunny 84 28.9 61 16.1 46 46 Calm 30.09 1019 10 16.09344 0 0
12:52 pm 12:52 Partly Cloudy 86 30 62 16.7 45 45 NW 6 9 30.09 1019 10 16.09344 0 0
1:52 pm 13:52 Partly Cloudy 88 31.1 63 17.2 43 43 NNE 7 11 30.06 1018 10 16.09344 0 0
2:52 pm 14:52 Partly Cloudy 87 30.6 62 16.7 43 43 Calm 30.06 1018 10 16.09344 0 0
3:52 pm 15:52 Partly Cloudy 91 32.8 63 17.2 39 39 Calm 30.03 1017 10 16.09344 0 0
4:52 pm 16:52 Mostly Cloudy 88 31.1 61 16.1 40 40 N 3 6 30.03 1017 10 16.09344 0 0
5:52 pm 17:52 Mostly Cloudy 88 31.1 62 16.7 42 42 Calm 30.03 1017 10 16.09344 0 0
6:52 pm 18:52 Mostly Cloudy 88 31.1 63 17.2 43 43 N 7 11 30.03 1017 10 16.09344 0 0
7:52 pm 19:52 Partly Cloudy 83 28.3 67 19.4 59 59 SE 10 17 30.03 1017 10 16.09344 0 0
8:52 pm 20:52 Mostly Clear 80 26.7 67 19.4 64 64 S 6 9 30.06 1018 10 16.09344 0 0
9:52 pm 21:52 Mostly Clear 78 25.6 69 20.6 74 74 S 5 7 30.06 1018 10 16.09344 0 0
10:52 pm 22:52 Mostly Clear 77 25 68 20 74 74 S 7 11 30.06 1018 10 16.09344 0 0
11:52 pm 23:52 Partly Cloudy 76 24.4 67 19.4 74 74 SSW 3 6 30.06 1018 10 16.09344 0 0

Powered by AerisWeather